[[{"header":{"parameterUnit":"m.s-1","parameterCategory":1,"la1":30.2991,"la2":30.254,"lo1":-89.0895,"lo2":-89.0444,"dy":0.0017,"dx":0.0017,"nx":28,"ny":28,"refTime":"2025-07-24T03:00:00:Z","depth":0,"parameterNumber":2,"parameterNumberName":"U-component_of_WINDS"},"data":[0,0,0,0,0,0,0,0,0,0,0,0,0,0,0,0,0,0,0,0,0,0,0,0,0,0,0,0,0,0,0,0,0,0,0,0,0,0,0,0,0,0,0,0,0,0,0,0,0,0,0,0,0,0,0,0,0,0,0.1376,0.1377,0,0.1383,0.1383,0.1383,0.1366,0.1366,0.1365,0.1365,0.137,0.1371,0.1372,0,0,0,0,0,0,0,0,0,0,0,0,0,0.1346,0.1347,0.1376,0.1377,0.1377,0.1383,0.1383,0.1383,0.1366,0.1366,0.1365,0.1364,0.137,0.1371,0.1372,0,0,0,0,0,0,0,0,0,0,0,0,0,0.1357,0.1347,0.1376,0.1369,0.1368,0.1383,0.1383,0.1383,0.1366,0.1366,0.1365,0.1364,0.137,0.1371,0.1372,0.1394,0,0,0.1375,0.1375,0,0,0,0,0,0,0,0,0.1356,0.1358,0.137,0.1369,0.1369,0.1373,0.1375,0.1387,0.1367,0.1367,0.1365,0.1364,0.1372,0.1373,0.1376,0.1394,0.1394,0.1375,0.1375,0.1376,0.1376,0,0,0,0,0,0,0,0.1355,0.1357,0.1379,0.137,0.1369,0.1364,0.1365,0.1377,0.1374,0.1367,0.1366,0.1367,0.1371,0.1375,0.1376,0.1394,0.1375,0.1376,0.1376,0.1377,0.1429,0.143,0,0,0,0,0,0,0.1356,0.1357,0.1379,0.1379,0.136,0.1365,0.1366,0.1372,0.1374,0.1373,0.1368,0.1366,0.1373,0.1374,0.1376,0.14,0.1376,0.1377,0.1377,0.1428,0.1429,0.143,0,0,0,0,0,0,0.1355,0.1358,0.1379,0.1368,0.137,0.1367,0.1374,0.1373,0.1376,0.1374,0.1373,0.1372,0.1373,0.1374,0.1389,0.14,0.1377,0.1378,0.1427,0.1428,0.1429,0.145,0,0,0,0,0,0,0.1354,0.1358,0.1367,0.1368,0.1371,0.1393,0.1375,0.1374,0.1378,0.1376,0.1378,0.1377,0.1372,0.1388,0.139,0.1401,0.1379,0.1426,0.1428,0.1429,0.1448,0.1452,0.1455,0,0,0,0,0,0.1353,0.1373,0.1368,0.137,0.1382,0.1394,0.1395,0.1389,0.1379,0.1388,0.1386,0.1377,0.1398,0.1389,0.1392,0.1403,0.1425,0.1427,0.1429,0.1447,0.1451,0.1455,0,0,0,0,0,0,0.1374,0.1373,0.1367,0.1388,0.1391,0.1391,0.1401,0.1394,0.14,0.1398,0.139,0.139,0.1406,0.1406,0.1396,0.1423,0.141,0.1412,0.1423,0.1427,0.143,0.1429,0.138,0,0,0,0,0,0.138,0.139,0.1389,0.1407,0.1409,0.1405,0.141,0.1405,0.1407,0.1409,0.1408,0.141,0.1417,0.1422,0.1429,0.1448,0.1447,0.1457,0.146,0.1463,0.1465,0.1473,0.1477,0.1436,0.1436,0.1436,0,0,0.1395,0.1396,0.1402,0.1411,0.1413,0.1422,0.1406,0.1417,0.1424,0.141,0.1424,0.1423,0.1425,0.1442,0.1449,0.1442,0.1476,0.1465,0.1467,0.1468,0.1475,0.1479,0.1483,0.1437,0.1437,0.1437,0,0,0.1425,0.1428,0.1442,0.1444,0.1446,0.1443,0.1446,0.1447,0.1446,0.1459,0.1449,0.1456,0.1469,0.147,0.1472,0.15,0.1492,0.1503,0.1519,0.1527,0.1531,0.1533,0.1542,0.1546,0.1505,0.1505,0.1505,0,0.1443,0.1457,0.145,0.1461,0.1465,0.1453,0.1466,0.1468,0.1473,0.1475,0.1467,0.1481,0.1482,0.1498,0.1504,0.1507,0.151,0.1503,0.1531,0.1534,0.1536,0.1544,0.1548,0.1506,0.1506,0.1506,0.1506,0,0.1477,0.1487,0.1498,0.1502,0.1507,0.1519,0.1513,0.1518,0.1513,0.151,0.1522,0.1522,0.1528,0.1531,0.1526,0.1546,0.1541,0.1532,0.1519,0.1541,0.1549,0.1552,0.1508,0.1507,0.1507,0.1507,0,0,0.1522,0.1521,0.1525,0.1525,0.1526,0.1533,0.1544,0.1549,0.1553,0.1556,0.1564,0.1574,0.1565,0.1568,0.1562,0.157,0.159,0.156,0.156,0.1564,0.1609,0.1615,0.1619,0.1584,0.1585,0.1585,0.1609,0,0.155,0.157,0.1563,0.1582,0.159,0.1577,0.1586,0.1587,0.1584,0.159,0.1586,0.1593,0.1582,0.1583,0.159,0.1586,0.1599,0.1584,0.159,0.1591,0.159,0.1623,0.163,0.1653,0.1612,0.1612,0.1613,0,0.1587,0.1591,0.1611,0.1608,0.1611,0.162,0.1622,0.1628,0.1628,0.1625,0.1627,0.162,0.1629,0.1615,0.1627,0.1617,0.1619,0.1617,0.1618,0.1618,0.1603,0.1623,0.166,0.1663,0.1618,0.1617,0.1617,0,0.1616,0.1626,0.1638,0.1639,0.1637,0.1643,0.1642,0.1642,0.1644,0.1647,0.1648,0.1652,0.1653,0.1655,0.1648,0.1639,0.166,0.1646,0.1657,0.1657,0.1662,0.1661,0.1698,0.1664,0.1664,0.1664,0.1664,0,0.1648,0.166,0.1651,0.1658,0.1671,0.1662,0.1675,0.1672,0.1671,0.1677,0.1667,0.1673,0.1663,0.1668,0.1662,0.1671,0.1672,0.1669,0.1668,0.167,0.167,0.1671,0.1669,0.1665,0.1665,0.1665,0.1664,0,0.1682,0.1677,0.1689,0.1685,0.1685,0.1694,0.169,0.1697,0.1692,0.17,0.1701,0.1694,0.1699,0.1692,0.1696,0.1692,0.1704,0.1701,0.1704,0.1703,0.1713,0.1712,0.1751,0.1755,0.172,0.172,0.172,0,0.1703,0.1712,0.1709,0.1712,0.1712,0.1718,0.172,0.1711,0.1714,0.1713,0.1719,0.1723,0.1725,0.1732,0.1727,0.1729,0.1725,0.1738,0.1725,0.1727,0.1724,0.1723,0.1723,0.1741,0.1741,0.1742,0.1742,0,0.174,0.1736,0.174,0.1743,0.1746,0.1747,0.1748,0.1751,0.1742,0.1745,0.1749,0.1751,0.1754,0.1757,0.1758,0.1756,0.1747,0.1746,0.1748,0.1751,0.1752,0.175,0.171,0.1745,0.1745,0.1745,0.1745,0.1744,0.1767,0.1774,0.1772,0.1776,0.1776,0.1776,0.1781,0.1777,0.178,0.1782,0.1777,0.1782,0.1779,0.1779,0.1778,0.1781,0.1775,0.1779,0.178,0.1781,0.1782,0.1752,0.1782,0.1782,0.1781,0.1781,0.1781,0,0.1802,0.18,0.1804,0.1805,0.1808,0.1799,0.1799,0.1802,0.1806,0.1805,0.1807,0.1811,0.1813,0.1808,0.1809,0.1812,0.1808,0.1813,0.1812,0.1811,0.1788,0.1785,0.1816,0.1816,0.1816,0.1816,0.1816,0.1816,0.1821,0.1831,0.1826,0.1835,0.1833,0.1837,0.1838,0.1838,0.1836,0.1841,0.1843,0.1839,0.1836,0.1836,0.1837,0.1836,0.1836,0.1842,0.1839,0.1817,0.1813,0.181,0.1807,0.1842,0.1842,0.1862,0.1862,0.1862]},{"header":{"parameterUnit":"m.s-1","parameterCategory":1,"la1":30.2991,"la2":30.254,"lo1":-89.0895,"lo2":-89.0444,"dy":0.0017,"dx":0.0017,"nx":28,"ny":28,"refTime":"2025-07-24T03:00:00:Z","depth":0,"parameterNumber":3,"parameterNumberName":"V-component_of_WINDS"},"data":[0,0,0,0,0,0,0,0,0,0,0,0,0,0,0,0,0,0,0,0,0,0,0,0,0,0,0,0,0,0,0,0,0,0,0,0,0,0,0,0,0,0,0,0,0,0,0,0,0,0,0,0,0,0,0,0,0,0,8.1192,8.1193,0,8.1236,8.1236,8.1237,8.115,8.1147,8.1144,8.1141,8.118,8.1184,8.1188,0,0,0,0,0,0,0,0,0,0,0,0,0,8.1027,8.103,8.1192,8.1193,8.1193,8.1236,8.1236,8.1237,8.115,8.1147,8.1143,8.114,8.1179,8.1184,8.1188,0,0,0,0,0,0,0,0,0,0,0,0,0,8.1087,8.1031,8.1192,8.1155,8.1152,8.1236,8.1236,8.1237,8.1151,8.1147,8.1142,8.1138,8.1178,8.1183,8.1189,8.1308,0,0,8.1206,8.1208,0,0,0,0,0,0,0,0,8.1084,8.1093,8.116,8.1158,8.1155,8.1183,8.1192,8.1261,8.1152,8.1151,8.1141,8.1136,8.1184,8.1189,8.1206,8.131,8.1311,8.1206,8.1209,8.1212,8.1213,0,0,0,0,0,0,0,8.108,8.1091,8.1209,8.1161,8.1158,8.1134,8.1138,8.1205,8.1191,8.1151,8.1145,8.1152,8.1182,8.1201,8.1207,8.1312,8.1206,8.1211,8.1214,8.1216,8.1512,8.1517,0,0,0,0,0,0,8.1081,8.1088,8.1208,8.121,8.1108,8.1141,8.1145,8.1178,8.119,8.1188,8.1155,8.1147,8.1194,8.12,8.1208,8.1346,8.1212,8.1217,8.122,8.1508,8.1513,8.1518,0,0,0,0,0,0,8.1078,8.1093,8.1206,8.1148,8.116,8.1148,8.1186,8.1181,8.12,8.1193,8.119,8.1178,8.1191,8.12,8.1283,8.1346,8.1219,8.1224,8.1502,8.151,8.1516,8.1624,0,0,0,0,0,0,8.1074,8.1092,8.1139,8.1149,8.1164,8.1283,8.119,8.1185,8.1211,8.1201,8.1213,8.1211,8.1188,8.1276,8.1289,8.1351,8.1229,8.1497,8.1506,8.1514,8.1615,8.1634,8.165,0,0,0,0,0,8.1068,8.1167,8.1142,8.1157,8.1222,8.1287,8.1295,8.1268,8.1216,8.1262,8.1257,8.1211,8.1338,8.1285,8.1299,8.1364,8.1493,8.1503,8.1513,8.1607,8.163,8.165,0,0,0,0,0,0,8.1162,8.1168,8.114,8.1245,8.1267,8.1272,8.1328,8.1294,8.1328,8.1317,8.1281,8.1284,8.1374,8.1378,8.1319,8.1479,8.1406,8.142,8.1473,8.1495,8.1512,8.1508,8.1233,0,0,0,0,0,8.1195,8.1249,8.1251,8.1344,8.1356,8.1341,8.1368,8.1346,8.1365,8.1373,8.1374,8.1393,8.1437,8.1466,8.1507,8.1616,8.1616,8.1668,8.1685,8.17,8.1711,8.1766,8.1788,8.1552,8.1552,8.1552,0,0,8.1264,8.1274,8.131,8.1363,8.1376,8.143,8.1349,8.141,8.1449,8.1382,8.146,8.1462,8.1481,8.1577,8.162,8.1583,8.1777,8.1713,8.1724,8.1727,8.1779,8.1801,8.1821,8.1559,8.1558,8.1556,0,0,8.1416,8.1431,8.1508,8.1524,8.1546,8.1536,8.1555,8.1566,8.1565,8.1644,8.1594,8.1639,8.1716,8.1731,8.1748,8.1907,8.1864,8.1921,8.2011,8.2066,8.2084,8.2101,8.2154,8.2174,8.1933,8.1933,8.1933,0,8.1497,8.1579,8.1552,8.1617,8.164,8.1584,8.1661,8.1677,8.1711,8.1727,8.1687,8.1781,8.179,8.1888,8.1926,8.1944,8.1962,8.1917,8.2084,8.21,8.2115,8.2165,8.2186,8.1939,8.1939,8.1938,8.1937,0,8.1677,8.1734,8.1794,8.183,8.186,8.1931,8.1912,8.1946,8.1921,8.1914,8.1994,8.2003,8.2043,8.2065,8.2042,8.216,8.2136,8.2091,8.2016,8.2144,8.2191,8.221,8.1949,8.1946,8.1944,8.1943,0,0,8.1887,8.1907,8.1929,8.1944,8.1965,8.2007,8.2075,8.2115,8.2144,8.217,8.2223,8.229,8.2248,8.2268,8.2245,8.2294,8.2415,8.2242,8.2242,8.2271,8.2542,8.2573,8.2596,8.2388,8.2392,8.2395,8.2539,0,8.2035,8.2152,8.213,8.2243,8.2294,8.2242,8.23,8.2318,8.2313,8.2354,8.2349,8.2395,8.2338,8.235,8.2396,8.239,8.2468,8.238,8.2434,8.2437,8.2428,8.2621,8.2654,8.279,8.2557,8.256,8.2563,0,8.2223,8.2257,8.2376,8.2387,8.2408,8.2461,8.2495,8.2536,8.2555,8.2548,8.2571,8.2539,8.2603,8.2531,8.2618,8.2558,8.258,8.2581,8.2585,8.2586,8.2505,8.2624,8.2833,8.2852,8.2592,8.2589,8.2587,0,8.236,8.2436,8.2516,8.253,8.2547,8.2585,8.2593,8.2608,8.2633,8.2663,8.2679,8.2716,8.2735,8.2764,8.2742,8.2692,8.2831,8.2757,8.2824,8.2825,8.2853,8.2851,8.3065,8.2873,8.2873,8.2872,8.2872,0,8.2526,8.26,8.2577,8.2626,8.2707,8.268,8.276,8.2762,8.2775,8.2822,8.2779,8.2824,8.2794,8.2835,8.2819,8.2891,8.2901,8.2895,8.2889,8.2897,8.2897,8.2907,8.2896,8.2878,8.2876,8.2875,8.2874,0,8.2691,8.268,8.2763,8.2772,8.2776,8.2835,8.2841,8.2886,8.2879,8.2939,8.2951,8.2939,8.2986,8.2968,8.3017,8.3006,8.3097,8.3081,8.3091,8.3085,8.3152,8.3145,8.3377,8.3405,8.3199,8.3201,8.3203,0,8.2796,8.2852,8.2867,8.2896,8.2908,8.2956,8.2982,8.2957,8.2986,8.3011,8.3052,8.3095,8.3128,8.3204,8.3198,8.3235,8.3217,8.3296,8.3222,8.3228,8.3214,8.321,8.3213,8.331,8.3312,8.3314,8.3316,0,8.2982,8.2974,8.3014,8.3052,8.3085,8.3114,8.3138,8.3164,8.3141,8.3175,8.3222,8.3248,8.3299,8.3341,8.3374,8.3379,8.3343,8.334,8.3356,8.3363,8.3365,8.3362,8.3128,8.3333,8.3332,8.333,8.3329,8.3329,8.3118,8.3164,8.3182,8.3228,8.3244,8.3268,8.331,8.3309,8.3349,8.3388,8.3372,8.3426,8.3442,8.3482,8.3494,8.3534,8.3503,8.3528,8.3534,8.3539,8.3547,8.3362,8.3541,8.354,8.354,8.3539,8.3539,0,8.3298,8.3308,8.3351,8.3387,8.3422,8.3388,8.3413,8.3444,8.3493,8.3512,8.3546,8.3599,8.364,8.3639,8.3676,8.3709,8.3693,8.3719,8.3714,8.3716,8.3574,8.3554,8.3731,8.3731,8.3731,8.3731,8.3731,8.3731,8.3397,8.3472,8.3466,8.3548,8.3556,8.3611,8.3628,8.3649,8.3663,8.3726,8.376,8.376,8.3769,8.3807,8.3842,8.3841,8.3855,8.3887,8.3879,8.3745,8.3726,8.3708,8.3689,8.3891,8.3891,8.4016,8.4017,8.4018]}]]